EW0199 Weather Reports


Display with metric or nautical units.
time (UTC)temp
F
wind
direction
speed
MPH
gust
MPH
rain 1hr
in
rain 24hr
in
rain mn
in
humidity
%
barometer
mb
20260904044920 65 97 0.0 1.0 0.07 0.72 0.72 98 1013.3
20260904044339 65 318 0.0 1.0 0.07 0.72 0.72 98 1013.4
20260904043341 65 314 0.0 1.0 0.04 0.69 0.69 98 1013.8
20260904042905 65 314 0.0 1.0 0.04 0.69 0.69 98 1013.1
20260904042325 65 314 0.0 0.0 0.00 0.65 0.65 98 1013.7
20260904041847 65 314 0.0 2.0 0.00 0.65 0.65 98 1013.7
20260904041406 65 314 0.0 2.0 0.00 0.65 0.65 98 1013.4
20260904040831 65 288 0.0 0.0 0.00 0.65 0.65 98 1013.3
20260904040346 65 287 0.0 0.0 0.00 0.65 0.65 98 1013.2
20260904035859 65 288 0.0 0.0 0.00 0.65 0.65 98 1013.3
20260904035411 65 287 0.0 0.0 0.00 0.65 0.65 98 1013.2
20260904034918 65 288 0.0 0.0 0.00 0.65 0.65 98 1013.5
20260904034326 65 288 0.0 0.0 0.00 0.65 0.65 98 1013.6
20260904033851 65 288 0.0 0.0 0.00 0.65 0.65 98 1013.7
20260904033419 65 288 0.0 0.0 0.00 0.65 0.65 98 1013.7
20260904032923 65 288 0.0 0.0 0.00 0.65 0.65 97 1013.4
20260904032344 65 288 0.0 0.0 0.00 0.65 0.65 97 1013.3
20260904031856 65 288 0.0 0.0 0.00 0.65 0.65 97 1013.5
20260904031415 65 288 0.0 0.0 0.00 0.65 0.65 97 1013.5
20260904030837 65 288 0.0 0.0 0.00 0.65 0.65 97 1013.5
20260904030400 65 288 0.0 0.0 0.00 0.65 0.65 97 1013.5
20260904025907 65 288 0.0 0.0 0.00 0.65 0.65 97 1013.7
20260904025334 65 287 0.0 0.0 0.00 0.65 0.65 97 1013.7
20260904024843 65 287 0.0 0.0 0.00 0.65 0.65 97 1013.4
20260904024411 65 288 0.0 0.0 0.00 0.65 0.65 97 1013.2
20260904023919 65 288 0.0 0.0 0.00 0.65 0.65 97 1013.2
20260904023338 65 288 0.0 0.0 0.00 0.65 0.65 97 1013.7
20260904022906 65 288 0.0 0.0 0.00 0.65 0.65 97 1013.8
20260904022431 65 287 0.0 0.0 0.00 0.65 0.65 97 1013.9
20260904021914 65 288 0.0 0.0 0.00 0.65 0.65 97 1013.9
20260904021402 66 287 0.0 0.0 0.00 0.65 0.65 97 1013.7
20260904020912 66 287 0.0 1.0 0.00 0.65 0.65 97 1013.6
20260904020419 66 288 0.0 1.0 0.00 0.65 0.65 97 1013.5
20260904015902 66 311 0.0 0.0 0.00 0.65 0.65 97 1013.2
20260904015327 66 312 0.0 0.0 0.00 0.65 0.65 97 1013.4
20260904014857 66 311 0.0 0.0 0.00 0.65 0.65 97 1013.3
20260904014422 66 312 0.0 0.0 0.00 0.65 0.65 97 1013.6
20260904013848 66 311 0.0 0.0 0.00 0.65 0.65 97 1013.4
20260904013415 66 312 0.0 0.0 0.00 0.65 0.65 97 1013.5
20260904012908 66 311 0.0 1.0 0.00 0.65 0.65 97 1013.5
20260904012414 66 311 0.0 1.0 0.00 0.65 0.65 97 1013.5
20260904011831 67 311 0.0 1.0 0.00 0.65 0.65 97 1013.3
20260904011353 67 311 0.0 0.0 0.00 0.65 0.65 97 1013.0
20260904010857 67 311 0.0 1.0 0.00 0.65 0.65 97 1012.9
20260904010344 67 312 0.0 1.0 0.00 0.65 0.65 97 1013.1
20260904005903 67 312 0.0 0.0 0.00 0.65 0.65 97 1013.0
20260904005330 67 311 0.0 0.0 0.00 0.65 0.65 97 1013.1
20260904004837 67 311 0.0 0.0 0.00 0.65 0.65 96 1013.3
20260904004359 67 312 0.0 0.0 0.00 0.65 0.65 96 1013.5
20260904003901 68 311 0.0 1.0 0.00 0.65 0.65 96 1013.1
20260904003428 68 312 0.0 1.0 0.00 0.65 0.65 96 1013.0
20260904002832 68 312 0.0 0.0 0.00 0.65 0.65 96 1012.7
20260904002340 68 312 0.0 0.0 0.00 0.65 0.65 96 1012.8
20260904001857 68 311 0.0 0.0 0.00 0.65 0.65 96 1012.9
20260904001422 68 311 0.0 0.0 0.00 0.65 0.65 95 1013.0
20260904000836 69 312 0.0 0.0 0.00 0.65 0.65 95 1012.8
20260904000355 69 312 0.0 0.0 0.00 0.65 0.65 95 1012.7
20260903235917 69 312 0.0 0.0 0.00 0.65 0.65 95 1012.7
20260903235324 69 312 0.0 0.0 0.00 0.65 0.65 95 1012.9
20260903234849 70 312 0.0 0.0 0.00 0.65 0.65 95 1012.9
20260903234358 70 311 0.0 0.0 0.00 0.65 0.65 95 1012.9
20260903233909 70 312 0.0 0.0 0.00 0.65 0.65 94 1012.9
20260903233417 70 312 0.0 0.0 0.00 0.65 0.65 94 1012.9
20260903232837 70 311 0.0 0.0 0.00 0.65 0.65 94 1012.9
20260903232359 70 312 0.0 0.0 0.00 0.65 0.65 94 1012.7
20260903231907 70 312 0.0 1.0 0.00 0.65 0.65 93 1012.6
20260903231326 70 311 0.0 1.0 0.00 0.65 0.65 94 1012.4
20260903230853 70 86 0.0 1.0 0.00 0.65 0.65 93 1012.2
20260903230417 71 292 0.0 0.0 0.00 0.65 0.65 93 1012.7
20260903225908 71 292 0.0 0.0 0.00 0.65 0.65 93 1012.9
20260903225411 71 292 0.0 0.0 0.00 0.65 0.65 93 1012.9
20260903224833 71 292 0.0 0.0 0.00 0.65 0.65 94 1012.6
20260903224340 71 292 0.0 0.0 0.00 0.65 0.65 93 1012.4
20260903223852 71 292 0.0 0.0 0.00 0.65 0.65 93 1012.7
20260903223417 71 292 0.0 0.0 0.00 0.65 0.65 92 1012.8
20260903222839 71 292 0.0 1.0 0.00 0.65 0.65 93 1012.7
20260903222401 71 328 0.0 1.0 0.00 0.65 0.65 93 1012.6
20260903221910 71 326 0.0 3.0 0.00 0.65 0.65 93 1012.3
20260903221324 71 360 1.0 3.0 0.00 0.65 0.65 93 1012.3
20260903220847 71 9 0.0 2.0 0.00 0.65 0.65 94 1012.0
20260903220348 70 6 0.0 2.0 0.00 0.65 0.65 93 1012.3
20260903215907 71 324 0.0 2.0 0.00 0.65 0.65 94 1012.1
20260903215325 71 319 0.0 0.0 0.00 0.65 0.65 94 1012.2
20260903214847 71 320 0.0 1.0 0.00 0.65 0.65 93 1012.5
20260903214354 71 281 0.0 0.0 0.00 0.65 0.65 93 1012.6
20260903213900 71 281 0.0 0.0 0.00 0.65 0.65 93 1012.4
20260903213405 71 281 0.0 1.0 0.00 0.65 0.65 93 1012.3
20260903212853 71 281 0.0 1.0 0.00 0.65 0.65 92 1012.5
20260903212416 71 281 0.0 0.0 0.00 0.65 0.65 92 1012.6
20260903211924 71 281 0.0 1.0 0.00 0.65 0.65 92 1012.6
20260903211412 71 280 0.0 1.0 0.00 0.65 0.65 93 1012.6
20260903210921 71 316 0.0 1.0 0.00 0.65 0.65 93 1012.4
20260903210337 71 312 0.0 0.0 0.00 0.65 0.65 94 1012.4
20260903205843 71 310 0.0 0.0 0.00 0.65 0.65 94 1012.4
20260903204844 71 311 0.0 1.0 0.00 0.65 0.65 93 1012.7
20260903204349 71 312 0.0 1.0 0.00 0.65 0.65 93 1012.8
20260903203842 71 338 0.0 0.0 0.00 0.65 0.65 93 1013.0
20260903202848 71 338 0.0 1.0 0.00 0.65 0.65 94 1013.1
20260903201850 70 72 0.0 0.0 0.00 0.65 0.65 95 1012.8
20260903201417 70 354 0.0 1.0 0.00 0.65 0.65 95 1012.9
20260903200841 70 52 0.0 1.0 0.00 0.65 0.65 95 1012.9
20260903195829 70 216 0.0 1.0 0.00 0.65 0.65 95 1012.8
20260903195352 70 216 0.0 1.0 0.00 0.65 0.65 95 1012.9
20260903194917 69 295 0.0 1.0 0.00 0.65 0.65 96 1013.0
20260903194332 69 75 0.0 1.0 0.00 0.65 0.65 96 1013.1
20260903193856 69 75 0.0 1.0 0.00 0.65 0.65 95 1013.1
20260903193404 69 242 0.0 1.0 0.00 0.65 0.65 95 1013.1
20260903192345 69 278 0.0 1.0 0.00 0.65 0.65 95 1013.2
20260903191909 69 278 0.0 2.0 0.00 0.65 0.65 95 1013.2
20260903191328 70 278 0.0 1.0 0.00 0.65 0.65 95 1013.3
20260903190850 70 319 0.0 2.0 0.00 0.65 0.65 94 1013.2
20260903190417 70 69 0.0 3.0 0.00 0.65 0.65 93 1013.2
20260903185925 70 102 0.0 3.0 0.00 0.65 0.65 93 1013.2
20260903185322 71 168 0.0 1.0 0.00 0.65 0.65 94 1013.2
20260903184846 70 220 0.0 1.0 0.00 0.65 0.65 95 1013.1
20260903184407 70 302 0.0 1.0 0.00 0.65 0.65 95 1013.1
20260903184015 70 171 0.0 1.0 0.00 0.65 0.65 95 1013.0
20260903183327 70 79 0.0 5.0 0.00 0.65 0.65 95 1013.2
20260903182852 70 249 0.0 3.0 0.00 0.65 0.65 95 1013.2
20260903182400 69 100 0.0 1.0 0.00 0.65 0.65 95 1013.3
20260903181823 69 299 0.0 3.0 0.00 0.65 0.65 95 1013.2
20260903181349 69 317 0.0 4.0 0.00 0.65 0.65 95 1013.0
20260903180918 69 61 1.0 4.0 0.00 0.65 0.65 95 1012.9
20260903180341 69 290 0.0 3.0 0.00 0.65 0.65 96 1012.7
20260903175901 69 328 0.0 2.0 0.00 0.65 0.65 96 1012.4
20260903175322 69 278 0.0 2.0 0.01 0.65 0.65 96 1012.3
20260903174846 69 333 0.0 2.0 0.01 0.65 0.65 97 1012.5
20260903173850 68 80 0.0 3.0 0.02 0.65 0.65 97 1012.2
20260903173420 68 83 1.0 3.0 0.02 0.65 0.65 97 1012.4
20260903172844 67 321 0.0 2.0 0.02 0.65 0.65 97 1012.2
20260903171844 67 224 0.0 3.0 0.03 0.65 0.65 97 1012.8
20260903170843 66 282 0.0 6.0 0.06 0.65 0.65 97 1013.0
20260903170402 66 311 1.0 4.0 0.10 0.65 0.65 97 1013.0
20260903165323 66 359 1.0 2.0 0.34 0.64 0.64 97 1013.3
20260903164824 66 306 0.0 1.0 0.36 0.64 0.64 98 1013.4
20260903164345 66 293 0.0 1.0 0.35 0.63 0.63 98 1013.4
20260903163344 65 299 0.0 1.0 0.35 0.63 0.63 97 1013.2
20260903162919 65 299 0.0 2.0 0.35 0.63 0.63 97 1013.4
20260903162336 65 300 0.0 1.0 0.35 0.63 0.63 97 1013.4
20260903161344 65 317 0.0 1.0 0.34 0.62 0.62 97 1013.4
20260903160843 65 42 0.0 0.0 0.31 0.59 0.59 97 1013.4
20260903160404 65 38 0.0 1.0 0.24 0.52 0.52 97 1013.9
20260903155906 65 35 0.0 1.0 0.10 0.38 0.38 97 1014.1
20260903154847 65 35 0.0 0.0 0.01 0.28 0.28 97 1014.2
20260903154416 65 35 0.0 0.0 0.24 0.28 0.28 97 1014.1
20260903153844 65 35 0.0 0.0 0.28 0.28 0.28 97 1014.0
20260903152841 65 35 0.0 0.0 0.28 0.28 0.28 96 1013.7
20260903152411 65 35 0.0 0.0 0.28 0.28 0.28 96 1013.6
20260903151829 65 35 0.0 0.0 0.28 0.28 0.28 96 1013.4
20260903151355 65 35 0.0 0.0 0.28 0.28 0.28 96 1013.2
20260903150920 65 35 0.0 0.0 0.28 0.28 0.28 96 1013.2
20260903150344 65 37 0.0 1.0 0.28 0.28 0.28 96 1013.3
20260903145915 65 38 0.0 7.0 0.28 0.28 0.28 95 1013.3
20260903145340 65 317 1.0 7.0 0.28 0.28 0.28 95 1013.3
20260903144330 66 286 0.0 2.0 0.00 0.00 0.00 93 1013.3
20260903143841 66 286 0.0 2.0 0.00 0.00 0.00 92 1013.7
20260903143401 67 320 0.0 1.0 0.00 0.00 0.00 92 1013.1
20260903142909 67 320 0.0 1.0 0.00 0.00 0.00 92 1012.9
20260903142330 67 320 0.0 1.0 0.00 0.00 0.00 91 1013.0
20260903141852 67 320 0.0 2.0 0.00 0.00 0.00 91 1013.0
20260903141411 67 331 0.0 2.0 0.00 0.00 0.00 91 1013.0
20260903140918 67 302 0.0 2.0 0.00 0.00 0.00 91 1012.8
20260903140441 67 321 0.0 2.0 0.00 0.00 0.00 91 1012.8
20260903135827 67 320 0.0 1.0 0.00 0.00 0.00 92 1012.7
20260903135345 67 315 0.0 5.0 0.00 0.00 0.00 92 1012.6
20260903134916 66 316 1.0 5.0 0.00 0.00 0.00 92 1012.6
20260903134337 66 299 0.0 2.0 0.00 0.00 0.00 93 1012.7
20260903133905 66 84 0.0 1.0 0.00 0.00 0.00 93 1012.7
20260903133328 66 305 0.0 1.0 0.00 0.00 0.00 93 1012.8
20260903132854 66 292 0.0 3.0 0.00 0.00 0.00 93 1012.8
20260903132420 66 83 1.0 3.0 0.00 0.00 0.00 93 1012.8
20260903131841 65 308 0.0 2.0 0.00 0.00 0.00 94 1012.9
20260903131348 65 295 0.0 1.0 0.00 0.00 0.00 93 1012.9
20260903130836 65 295 0.0 2.0 0.00 0.00 0.00 93 1012.9
20260903130341 65 302 0.0 1.0 0.00 0.00 0.00 94 1012.8
20260903125849 65 312 0.0 1.0 0.00 0.00 0.00 94 1012.8
20260903125411 65 311 0.0 1.0 0.00 0.00 0.00 94 1012.7
20260903124828 65 264 0.0 2.0 0.00 0.00 0.00 94 1012.7
20260903124344 64 321 0.0 2.0 0.00 0.00 0.00 94 1012.9
20260903123910 64 116 0.0 2.0 0.00 0.00 0.00 94 1012.8
20260903123335 64 317 0.0 2.0 0.00 0.00 0.00 94 1012.8
20260903122857 64 69 0.0 2.0 0.00 0.00 0.00 94 1012.7
20260903122406 64 302 0.0 2.0 0.00 0.00 0.00 94 1012.9
20260903121858 64 278 0.0 1.0 0.00 0.00 0.00 94 1012.7
20260903121420 64 311 0.0 1.0 0.00 0.00 0.00 94 1013.0
20260903120855 64 293 0.0 1.0 0.00 0.00 0.00 94 1013.0
20260903120338 64 324 0.0 1.0 0.00 0.01 0.00 94 1013.0
20260903115921 63 324 0.0 1.0 0.00 0.01 0.00 95 1013.0
20260903115342 63 310 0.0 1.0 0.00 0.01 0.00 95 1013.0
20260903114904 63 305 0.0 1.0 0.00 0.01 0.00 95 1013.0
20260903114402 63 282 0.0 1.0 0.00 0.01 0.00 95 1012.9
20260903113844 63 289 0.0 0.0 0.00 0.01 0.00 95 1012.8
20260903113327 63 289 0.0 3.0 0.00 0.01 0.00 95 1012.7
20260903112910 63 287 0.0 3.0 0.00 0.01 0.00 95 1012.7
20260903112334 63 278 0.0 1.0 0.00 0.01 0.00 96 1012.7
20260903111858 63 296 0.0 1.0 0.00 0.01 0.00 96 1012.7
20260903111418 63 310 0.0 1.0 0.00 0.01 0.00 96 1012.7
20260903110939 63 321 0.0 1.0 0.00 0.01 0.00 96 1012.7
20260903103332 62 317 0.0 1.0 0.00 0.20 0.00 97 1012.5